This is the latest recevied weather packets stored in our database for station/object KAWM. If no packets are shown the sender has not sent any weather packets the latest 10 day(s).
| Time | Temp. | Humidity | Pressure | Rain* | Wind** | Luminosity | Snow |
|---|---|---|---|---|---|---|---|
| 1777428208 | 22.78° C | 94% | 1009.8 hPa | - | - | - | - |
| 1777427007 | 22.78° C | 94% | 1009.8 hPa | - | - | - | - |
| 1777426408 | 22.78° C | 94% | 1009.8 hPa | - | - | - | - |
| 1777422804 | 22.78° C | 94% | 1009.8 hPa | - | - | - | - |
| 1777422210 | 22.78° C | 94% | 1009.8 hPa | - | - | - | - |
| 1777421608 | 22.78° C | 94% | 1009.8 hPa | - | - | - | - |
| 1777414408 | 20.56° C | 88% | 1011.2 hPa | - | - | - | - |
| 1777412609 | 20.56° C | 88% | 1011.2 hPa | - | - | - | - |
| 1777410806 | 22.78° C | 94% | 1011.2 hPa | - | - | - | - |
| 1777409010 | 23.89° C | 88% | 1011.5 hPa | - | - | - | - |
| 1777407933 | 23.89° C | 88% | 1009.8 hPa | - | - | - | - |
| 1777405412 | 25.56° C | 78% | 1011.9 hPa | - | - | - | - |
| 1777404212 | 26.67° C | 78% | 1012.9 hPa | - | - | - | - |
| 1777398209 | 25.56° C | 78% | 1014.6 hPa | - | - | - | - |
| 1777397611 | 25.56° C | 78% | 1014.6 hPa | - | - | - | - |
| 1777394006 | 25.56° C | 78% | 1014.9 hPa | - | - | - | - |
| 1777390407 | 20.56° C | 94% | 1015.2 hPa | - | - | - | - |
| 1777388007 | 20.56° C | 94% | 1014.6 hPa | - | - | - | - |
| 1777385608 | 20.56° C | 94% | 1015.2 hPa | - | - | - | - |
| 1777383809 | 20.56° C | 94% | 1015.2 hPa | - | - | - | - |
| 1777380806 | 20° C | 88% | 1013.2 hPa | - | - | - | - |
| 1777377810 | 20° C | 88% | 1013.2 hPa | - | - | - | - |
| 1777377207 | 20° C | 88% | 1013.2 hPa | - | - | - | - |
| 1777376006 | 20° C | 88% | 1013.2 hPa | - | - | - | - |
| 1777373008 | 20° C | 88% | 1013.5 hPa | - | - | - | - |
* Rain since midnight (hover to see other rain measurements)
** Current wind speed in m/s (hover to see current wind gust speed)